STARLINK-4295, 52996

Orbit data source: Space-Track

STARLINK-4295, 52996 is a payload satellite owned by SpaceX/Seattle (US) in LEO that was launched on Thu, 07 Jul 2022 UTC via an FALCON 9 launch vehicle from the Air Force Eastern Test Range (AFETR). Payload-class satellites include a variety of spacecraft equipped with specific instruments for various scientific and technological missions. These include communications satellites like Starlink; space stations such as the ISS; scientific satellites like the Hubble; Earth observation satellites from companies like Planet Labs, Umbra, and HawkEye 360; GPS; miniature CubeSats for education and research; and military/defense satellites.

Loading next visibility...
Identifier
52996, 2022-076L
Orbit
LEO
Country
Flag of USUS
Related business
Manufacturer
SpaceX/Seattle
Mission
Operational Commercial Communications
Bus & Motor
STARLINK, Unknown motor
Mass
297 kg wet, ~275 kg dry
Launch date (UTC)
2022-07-07 (3 years ago)
Launch vehicle
FALCON 9
Launch site
Air Force Eastern Test Range (AFETR)
Object type
Payload
Rocket body
Debris
Shape & HBR
Box + 1 Pan, 10.1 m
Radar Cross Section
13.562 m², Large (>1 m²)

Expand to show TLE details & history
Last TLE update: 21 hours ago

TLE from 21 hours ago
0 STARLINK-4295
1 52996U 22076L   25348.73749765 -.00000273  00000-0  96306-6 0  9991
2 52996  53.2182 115.7647 0001412  82.9748 277.1404 15.08828327190011
Epoch: 2025-12-14T17:41Z
TLE epoch observation values (Epoch: 2025-12-14T17:41:59.796Z)
Latitude
-0.0001°
Longitude
126.61935°
Altitude
540.555 km
Speed
7.593 km/s
True Right ascension
07h 43m 03s
True Declination
0° 00' 00"
Sunlit
Object was in full shadow at epoch
Visualization orbit readout
Latitude
Unknown
Longitude
Unknown
Altitude
Unknown
Speed
Unknown
Apparent Right ascension
Unknown
Apparent Declination
Unknown
Sunlit
N/A
Visualization observer readout
Local Sidereal Time
13:32:09
Azimuth
Unknown
Elevation
Unknown
Doppler factor
Unknown
Orbital elements
Apogee altitude
541.001 km
Perigee altitude
539.047 km
Semi-major axis
6,918.161 km
Eccentricity
0.00014
Inclination
53.2182°
RAAN
115.7647°
Arg. of periapsis
82.9748°
True anomaly
277.12434°
Mean anomaly
277.1404°
Eccentric anomaly
277.13237°
Mean motion
3.77187 °/min
Orbital period
95.44 mins
BSTAR
9.6306e-7
Loading maneuver chart data...
Computing Atmospheric mass density...
Loading historical data...
Loading historical data...
Loading historical data...
Loading historical data...
Loading historical data...
Loading historical data...
Loading historical data...

Documentation

Showing up to 5 results
|